Grand Marais, MN

3:34 AM CST on January 18, 2017 (GMT -0600)
Grand Marais-Cook County

Weather History for KCKC - October, 2012

Change the Weather History Date:

Thursday, October 11, 2012

  Actual Average Record
Temperature  
Mean Temperature 47 °F -  
Max Temperature 68 °F 49 °F 80 °F (2015)
Min Temperature 26 °F 33 °F 24 °F (2006)
Degree Days  
Heating Degree Days 18    
Moisture  
Dew Point 24 °F    
Average Humidity 72    
Maximum Humidity 93    
Minimum Humidity 45    
Precipitation  
Precipitation 0.00 in - - ()
Sea Level Pressure  
Sea Level Pressure 29.99 in    
Wind  
Wind Speed 7 mph (WNW)    
Max Wind Speed 16 mph    
Max Gust Speed 26 mph    
Visibility 9 miles    
Events Snow    
Averages and records for this station are not official NWS values.
T = Trace of Precipitation, MM = Missing Value Source: NWS Daily Summary

Daily Weather History Graph

Daily Weather History Graph

Search for Another Location

Airport or City:

Trip Planner

Search our weather history database for the weather conditions in past years. The results will help you decide how hot, cold, wet, or windy it might be!

Date:

Astronomy

Oct. 11, 2012 Rise Set
Actual Time 7:15 AM CDT 6:19 PM CDT
Civil Twilight 6:44 AM CDT 6:50 PM CDT
Nautical Twilight 6:08 AM CDT 7:26 PM CDT
Astronomical Twilight 5:32 AM CDT 8:02 PM CDT
Moon 2:37 AM CDT (10/11) 4:10 PM CDT (10/11)
Length of Visible Light 12h 06m
Length of Day
11h 04m
Waning Crescent, 18% of the Moon is Illuminated
Oct 11
Waning Crescent
Oct 15
New
Oct 21
First Quarter
Oct 29
Full
Nov 6
Last Quarter

Hourly Weather History & Observations

Time (CDT) Temp. Windchill Dew Point Humidity Pressure Visibility Wind Dir Wind Speed Gust Speed Precip Events Conditions
12:14 AM 32.0 °F 26.4 °F 28.4 °F 87% 29.87 in 3.0 mi SSW 5.8 mph - N/A   Overcast
12:34 AM 32.0 °F 26.4 °F 28.4 °F 87% 29.86 in 5.0 mi SW 5.8 mph - N/A   Overcast
12:53 AM 32.0 °F 26.4 °F 28.4 °F 87% 29.86 in 5.0 mi SW 5.8 mph - N/A Snow Light Snow
1:14 AM 32.0 °F 27.5 °F 28.4 °F 87% 29.86 in 5.0 mi WSW 4.6 mph - N/A   Overcast
1:34 AM 32.0 °F 26.4 °F 28.4 °F 87% 29.85 in 5.0 mi SW 5.8 mph - N/A Snow Light Snow
1:53 AM 32.0 °F 26.4 °F 28.4 °F 87% 29.85 in 7.0 mi WSW 5.8 mph - N/A   Overcast
2:14 AM 32.0 °F 25.6 °F 28.4 °F 87% 29.85 in 7.0 mi WSW 6.9 mph - N/A   Light Drizzle
2:33 AM 32.0 °F 28.7 °F 28.4 °F 87% 29.84 in 7.0 mi WSW 3.5 mph - N/A   Light Drizzle
2:54 AM 30.2 °F 26.7 °F 28.4 °F 93% 29.84 in 7.0 mi West 3.5 mph - N/A   Overcast
3:14 AM 30.2 °F 26.7 °F 28.4 °F 93% 29.83 in 5.0 mi West 3.5 mph - N/A   Mostly Cloudy
3:33 AM 30.2 °F 26.7 °F 28.4 °F 93% 29.82 in 7.0 mi WSW 3.5 mph - N/A   Mostly Cloudy
3:54 AM 30.2 °F 25.4 °F 28.4 °F 93% 29.83 in 7.0 mi West 4.6 mph - N/A   Mostly Cloudy
4:14 AM 30.2 °F 24.3 °F 28.4 °F 93% 29.83 in 7.0 mi West 5.8 mph - N/A Snow Light Snow
4:33 AM 30.2 °F 23.4 °F 28.4 °F 93% 29.83 in 7.0 mi WNW 6.9 mph - N/A Snow Light Snow
4:54 AM 32.0 °F 25.6 °F 26.6 °F 80% 29.83 in 10.0 mi WNW 6.9 mph - N/A   Overcast
5:14 AM 30.2 °F 22.6 °F 26.6 °F 86% 29.82 in 10.0 mi WNW 8.1 mph - N/A   Overcast
5:34 AM 30.2 °F 21.3 °F 26.6 °F 86% 29.83 in 10.0 mi WNW 10.4 mph 18.4 mph N/A   Mostly Cloudy
5:53 AM 30.2 °F 22.6 °F 26.6 °F 86% 29.83 in 10.0 mi WNW 8.1 mph - N/A   Scattered Clouds
6:14 AM 30.2 °F 21.3 °F 26.6 °F 86% 29.83 in 10.0 mi WNW 10.4 mph 19.6 mph N/A   Scattered Clouds
6:33 AM 30.2 °F 21.9 °F 26.6 °F 86% 29.84 in 10.0 mi WNW 9.2 mph 16.1 mph N/A   Clear
6:53 AM 30.2 °F 22.6 °F 26.6 °F 86% 29.85 in 10.0 mi WNW 8.1 mph 16.1 mph N/A   Clear
7:13 AM 30.2 °F 22.6 °F 24.8 °F 80% 29.85 in 10.0 mi WNW 8.1 mph 16.1 mph N/A   Clear
7:34 AM 30.2 °F 23.4 °F 24.8 °F 80% 29.86 in 10.0 mi WNW 6.9 mph - N/A   Clear
7:54 AM 32.0 °F 24.8 °F 26.6 °F 80% 29.86 in 10.0 mi WNW 8.1 mph - N/A   Scattered Clouds
8:13 AM 33.8 °F 26.4 °F 26.6 °F 75% 29.87 in 10.0 mi WNW 9.2 mph 16.1 mph N/A   Scattered Clouds
8:34 AM 33.8 °F 25.3 °F 24.8 °F 70% 29.88 in 10.0 mi WNW 11.5 mph 17.3 mph N/A   Scattered Clouds
8:54 AM 33.8 °F 24.8 °F 24.8 °F 70% 29.89 in 10.0 mi NW 12.7 mph 20.7 mph N/A   Scattered Clouds
9:13 AM 33.8 °F 24.8 °F 24.8 °F 70% 29.89 in 10.0 mi WNW 12.7 mph 21.9 mph N/A   Scattered Clouds
9:34 AM 33.8 °F 24.8 °F 24.8 °F 70% 29.90 in 10.0 mi West 12.7 mph 23.0 mph N/A   Overcast
9:54 AM 33.8 °F 26.4 °F 24.8 °F 70% 29.91 in 10.0 mi WNW 9.2 mph 20.7 mph N/A   Mostly Cloudy
10:14 AM 35.6 °F 26.2 °F 23.0 °F 60% 29.92 in 10.0 mi WNW 15.0 mph 25.3 mph N/A   Mostly Cloudy
10:33 AM 35.6 °F 26.6 °F 21.2 °F 56% 29.93 in 10.0 mi West 13.8 mph 24.2 mph N/A   Mostly Cloudy
10:54 AM 33.8 °F 25.3 °F 21.2 °F 60% 29.94 in 10.0 mi West 11.5 mph 25.3 mph N/A   Overcast
11:13 AM 33.8 °F 26.4 °F 21.2 °F 60% 29.95 in 10.0 mi West 9.2 mph 20.7 mph N/A   Overcast
11:33 AM 35.6 °F 27.1 °F 24.8 °F 65% 29.95 in 10.0 mi West 12.7 mph 24.2 mph N/A   Mostly Cloudy
11:54 AM 33.8 °F 25.8 °F 23.0 °F 65% 29.96 in 10.0 mi WNW 10.4 mph 24.2 mph N/A   Mostly Cloudy
12:14 PM 35.6 °F 26.6 °F 23.0 °F 60% 29.97 in 10.0 mi WNW 13.8 mph 20.7 mph N/A   Overcast
1:13 PM 37.4 °F 30.3 °F 23.0 °F 56% 29.98 in 10.0 mi WNW 10.4 mph 17.3 mph N/A   Mostly Cloudy
1:34 PM 33.8 °F 23.5 °F 26.6 °F 75% 30.00 in 0.8 mi NW 16.1 mph 26.5 mph N/A Snow Light Snow
1:54 PM 33.8 °F 28.6 °F 28.4 °F 81% 30.01 in 5.0 mi WNW 5.8 mph 19.6 mph N/A Snow Light Snow
1:58 PM 68.0 °F - 50.0 °F 52% 29.82 in 25.0 mi WSW 5.8 mph - N/A   Scattered Clouds
1:59 PM 33.8 °F 28.6 °F 28.4 °F 81% 30.01 in 5.0 mi WNW 5.8 mph 19.6 mph N/A Snow Light Snow
2:13 PM 33.8 °F 27.0 °F 26.6 °F 75% 30.02 in 2.5 mi NW 8.1 mph 20.7 mph N/A Snow Light Snow
2:34 PM 33.8 °F 27.7 °F 26.6 °F 75% 30.03 in 5.0 mi NW 6.9 mph 17.3 mph N/A   Haze
2:53 PM 35.6 °F 26.6 °F 24.8 °F 65% 30.04 in 10.0 mi NW 13.8 mph 21.9 mph N/A   Mostly Cloudy
3:14 PM 35.6 °F 27.5 °F 21.2 °F 56% 30.05 in 10.0 mi WNW 11.5 mph 18.4 mph N/A   Mostly Cloudy
3:34 PM 35.6 °F 27.1 °F 19.4 °F 52% 30.07 in 10.0 mi NW 12.7 mph 20.7 mph N/A   Scattered Clouds
3:53 PM 35.6 °F 27.5 °F 19.4 °F 52% 30.07 in 10.0 mi NW 11.5 mph 24.2 mph N/A   Mostly Cloudy
4:14 PM 37.4 °F 31.4 °F 17.6 °F 45% 30.08 in 10.0 mi WNW 8.1 mph 18.4 mph N/A   Scattered Clouds
4:34 PM 37.4 °F 30.3 °F 17.6 °F 45% 30.08 in 10.0 mi WNW 10.4 mph 19.6 mph N/A   Scattered Clouds
5:13 PM 33.8 °F 27.0 °F 17.6 °F 52% 30.11 in 10.0 mi NW 8.1 mph - N/A   Mostly Cloudy
5:34 PM 33.8 °F 27.0 °F 19.4 °F 56% 30.12 in 10.0 mi NW 8.1 mph 17.3 mph N/A   Scattered Clouds
5:54 PM 33.8 °F 27.0 °F 17.6 °F 52% 30.13 in 10.0 mi NW 8.1 mph 17.3 mph N/A   Scattered Clouds
6:13 PM 33.8 °F 27.7 °F 17.6 °F 52% 30.14 in 10.0 mi NW 6.9 mph - N/A   Clear
6:34 PM 32.0 °F 26.4 °F 17.6 °F 55% 30.15 in 10.0 mi NW 5.8 mph - N/A   Scattered Clouds
6:54 PM 30.2 °F 25.4 °F 17.6 °F 60% 30.16 in 10.0 mi WNW 4.6 mph - N/A   Clear
7:13 PM 30.2 °F 26.7 °F 17.6 °F 60% 30.17 in 10.0 mi WNW 3.5 mph - N/A   Clear
7:34 PM 28.4 °F 23.3 °F 17.6 °F 64% 30.17 in 10.0 mi WNW 4.6 mph - N/A   Clear
7:54 PM 28.4 °F 23.3 °F 17.6 °F 64% 30.18 in 10.0 mi WNW 4.6 mph - N/A   Clear
8:14 PM 28.4 °F 24.6 °F 17.6 °F 64% 30.19 in 10.0 mi WNW 3.5 mph - N/A   Clear
8:33 PM 28.4 °F 24.6 °F 17.6 °F 64% 30.19 in 10.0 mi WNW 3.5 mph - N/A   Clear
8:54 PM 28.4 °F 24.6 °F 17.6 °F 64% 30.20 in 10.0 mi WNW 3.5 mph - N/A   Clear
9:13 PM 28.4 °F 23.3 °F 17.6 °F 64% 30.21 in 10.0 mi West 4.6 mph - N/A   Clear
9:34 PM 28.4 °F 24.6 °F 17.6 °F 64% 30.21 in 10.0 mi WSW 3.5 mph - N/A   Clear
9:54 PM 26.6 °F 21.2 °F 17.6 °F 69% 30.21 in 10.0 mi West 4.6 mph - N/A   Clear
10:34 PM 26.6 °F 20.0 °F 19.4 °F 74% 30.22 in 10.0 mi West 5.8 mph - N/A   Clear
10:51 PM 26.6 °F 20.0 °F 19.4 °F 74% 30.23 in 10.0 mi West 5.8 mph - N/A   Clear
11:14 PM 26.6 °F 20.0 °F 21.2 °F 80% 30.24 in 10.0 mi West 5.8 mph - N/A   Clear
11:34 PM 26.6 °F 20.0 °F 21.2 °F 80% 30.24 in 10.0 mi West 5.8 mph - N/A   Clear
11:53 PM 26.6 °F 20.0 °F 21.2 °F 80% 30.25 in 10.0 mi West 5.8 mph - N/A   Clear